Location: Bishopstone
(51.0167°N, 1.9000°W)
Time: 22:09:57
(UTC+00:00)

Cosmos 1535 Rocket - Pass Details

Date: 16 September 2019
Orbit: 949 x 1004 km, 83.0° (Epoch: 14 October)

Event Time Altitude Azimuth Distance (km) Brightness Sun altitude
Rises 21:38:35 0° 350° (N) 3,744 8.4 -28.4°
Reaches altitude 10° 21:41:08 10° 352° (N) 2,789 7.6 -28.6°
Enters shadow 21:47:32 78° 75° (ENE) 1,028 4.4 -29.3°
